DW0398 Weather Reports


Display with metric or nautical units.
time (UTC)temp
F
wind
direction
speed
MPH
gust
MPH
rain 1hr
in
rain 24hr
in
rain mn
in
humidity
%
barometer
mb
20260510033305 53 199 0.0 2.0 0.03 0.51 0.50 96 1009.3
20260510032805 53 193 0.0 1.0 0.03 0.49 0.48 96 1009.5
20260510032306 53 221 0.0 1.0 0.06 0.50 0.48 96 1009.6
20260510031304 53 214 0.0 1.0 0.11 0.50 0.48 96 1009.6
20260510030805 53 219 0.0 1.0 0.12 0.50 0.48 96 1009.6
20260510030305 53 208 0.0 1.0 0.13 0.50 0.48 96 1009.6
20260510025804 53 204 0.0 1.0 0.15 0.50 0.48 95 1009.6
20260510024804 53 174 1.0 3.0 0.18 0.51 0.48 95 1009.5
20260510024304 53 203 0.0 3.0 0.19 0.51 0.48 95 1009.7
20260510023804 53 210 1.0 3.0 0.21 0.51 0.48 95 1009.7
20260510022805 53 174 1.0 3.0 0.33 0.49 0.45 95 1010.4
20260510021805 53 195 0.0 1.0 0.27 0.44 0.39 94 1010.6
20260510021304 53 96 0.0 0.0 0.25 0.42 0.37 94 1010.5
20260510020806 53 96 0.0 1.0 0.24 0.41 0.36 93 1010.6
20260510020305 54 96 0.0 1.0 0.23 0.41 0.35 93 1010.4
20260510015805 54 335 1.0 3.0 0.21 0.39 0.33 93 1010.7
20260510014805 54 322 0.0 2.0 0.18 0.36 0.30 92 1010.6
20260510014305 54 11 1.0 5.0 0.17 0.35 0.29 91 1010.5
20260510013805 55 356 2.0 6.0 0.15 0.33 0.27 89 1010.5
20260510013304 56 291 4.0 14.0 0.08 0.26 0.20 86 1010.4
20260510012805 58 355 5.0 10.0 0.00 0.18 0.12 81 1009.7
20260510012307 60 338 6.0 13.0 0.00 0.19 0.12 76 1009.6
20260510011805 62 323 5.0 13.0 0.00 0.19 0.12 72 1009.0
20260510011305 62 246 1.0 6.0 0.00 0.19 0.12 70 1007.6
20260510010805 62 243 1.0 5.0 0.00 0.19 0.12 70 1007.3
20260510010304 62 233 2.0 3.0 0.00 0.19 0.12 70 1007.4
20260510005306 62 221 2.0 7.0 0.00 0.19 0.12 70 1007.5
20260510004805 62 209 1.0 3.0 0.00 0.19 0.12 70 1007.3
20260510004304 62 215 0.0 3.0 0.00 0.19 0.12 70 1007.3
20260510003305 62 216 1.0 5.0 0.00 0.19 0.12 69 1007.2
20260510002805 63 225 2.0 6.0 0.00 0.19 0.12 68 1007.2
20260510002307 63 198 0.0 3.0 0.00 0.19 0.12 67 1007.1
20260510001805 63 220 2.0 7.0 0.00 0.19 0.12 66 1007.1
20260510001305 63 243 4.0 10.0 0.00 0.19 0.12 66 1007.0
20260510000805 63 241 2.0 7.0 0.00 0.19 0.12 66 1006.9
20260509235805 64 254 3.0 10.0 0.00 0.19 0.12 66 1006.9
20260509235307 64 232 5.0 12.0 0.00 0.19 0.12 65 1006.9
20260509234805 64 209 1.0 6.0 0.00 0.19 0.12 66 1006.8
20260509233804 65 238 2.0 7.0 0.00 0.19 0.12 65 1006.6
20260509233304 65 169 2.0 9.0 0.00 0.19 0.12 63 1006.5
20260509232805 66 223 2.0 10.0 0.00 0.19 0.12 63 1006.7
20260509232306 66 252 5.0 10.0 0.00 0.19 0.12 62 1006.6
20260509231805 66 226 3.0 13.0 0.00 0.19 0.12 62 1006.6
20260509231304 66 266 2.0 12.0 0.00 0.19 0.12 62 1006.7
20260509230804 67 219 5.0 15.0 0.00 0.19 0.12 62 1006.7
20260509230304 67 269 5.0 10.0 0.00 0.19 0.12 61 1006.7
20260509225805 67 269 3.0 10.0 0.00 0.19 0.12 62 1006.6
20260509225306 67 235 6.0 12.0 0.00 0.19 0.12 61 1006.6
20260509224304 67 268 4.0 12.0 0.00 0.19 0.12 61 1006.5
20260509223805 67 242 4.0 10.0 0.00 0.19 0.12 61 1006.5
20260509223305 67 218 5.0 16.0 0.00 0.19 0.12 61 1006.3
20260509221805 67 236 6.0 13.0 0.00 0.19 0.12 61 1006.4
20260509221304 68 240 5.0 12.0 0.00 0.20 0.12 61 1006.4
20260509220804 68 229 3.0 7.0 0.00 0.20 0.12 62 1006.5
20260509220305 67 250 3.0 12.0 0.00 0.20 0.12 64 1006.5
20260509215804 67 215 4.0 10.0 0.00 0.20 0.12 61 1006.5
20260509215306 67 229 3.0 13.0 0.00 0.20 0.12 64 1006.5
20260509214804 67 215 5.0 13.0 0.00 0.20 0.12 64 1006.5
20260509214306 67 214 3.0 9.0 0.00 0.21 0.12 64 1006.5
20260509213808 67 234 6.0 10.0 0.00 0.21 0.12 65 1006.7
20260509212805 66 244 4.0 9.0 0.00 0.22 0.12 64 1006.7
20260509212306 66 227 3.0 9.0 0.00 0.23 0.12 63 1006.7
20260509211304 66 217 3.0 10.0 0.00 0.25 0.12 65 1006.8
20260509210304 66 245 4.0 10.0 0.00 0.25 0.12 66 1007.1
20260509205804 65 228 2.0 10.0 0.00 0.25 0.12 67 1007.1
20260509204804 65 238 4.0 9.0 0.00 0.25 0.12 66 1007.3
20260509204304 66 269 5.0 12.0 0.00 0.26 0.12 66 1007.3
20260509203806 66 217 3.0 8.0 0.00 0.26 0.12 69 1007.2
20260509203305 65 241 3.0 12.0 0.00 0.26 0.12 67 1007.2
20260509202804 66 213 3.0 8.0 0.00 0.26 0.12 69 1007.3
20260509202306 65 253 7.0 14.0 0.00 0.26 0.12 67 1007.4
20260509201804 65 230 2.0 13.0 0.00 0.27 0.12 68 1007.5
20260509201304 66 217 5.0 13.0 0.00 0.27 0.12 68 1007.4
20260509200804 65 263 2.0 9.0 0.00 0.28 0.12 69 1007.7
20260509195306 64 269 4.0 10.0 0.00 0.28 0.12 71 1008.1
20260509194805 65 206 6.0 12.0 0.00 0.28 0.12 70 1008.1
20260509194304 64 236 4.0 10.0 0.00 0.28 0.12 70 1008.1
20260509193805 64 239 5.0 10.0 0.00 0.28 0.12 72 1008.0
20260509193304 64 237 4.0 12.0 0.00 0.28 0.12 71 1008.0
20260509192806 65 265 4.0 12.0 0.00 0.28 0.12 72 1008.1
20260509192306 64 238 7.0 14.0 0.00 0.28 0.12 71 1008.1
20260509191804 65 260 6.0 12.0 0.00 0.28 0.12 70 1008.3
20260509191304 64 261 6.0 12.0 0.00 0.28 0.12 72 1008.3
20260509190805 64 228 5.0 10.0 0.00 0.28 0.12 71 1008.3
20260509190304 64 229 6.0 13.0 0.00 0.28 0.12 73 1008.3
20260509185804 64 213 6.0 12.0 0.00 0.28 0.12 74 1008.3
20260509185306 64 222 6.0 15.0 0.00 0.28 0.12 74 1008.3
20260509184804 63 228 6.0 12.0 0.00 0.28 0.12 75 1008.3
20260509184305 63 206 5.0 12.0 0.00 0.28 0.12 76 1008.4
20260509183804 63 249 7.0 14.0 0.00 0.28 0.12 74 1008.5
20260509183304 63 249 5.0 15.0 0.00 0.28 0.12 76 1008.4
20260509182307 62 230 3.0 9.0 0.00 0.28 0.12 78 1008.5
20260509181304 62 271 6.0 17.0 0.00 0.28 0.12 80 1008.7
20260509180804 61 253 3.0 9.0 0.00 0.28 0.12 82 1008.7
20260509180305 61 213 1.0 7.0 0.00 0.28 0.12 83 1008.8
20260509175306 60 248 1.0 6.0 0.00 0.28 0.12 85 1008.8
20260509174804 60 273 1.0 6.0 0.00 0.28 0.12 85 1008.7
20260509173805 60 237 2.0 6.0 0.00 0.28 0.12 85 1008.8
20260509172804 59 191 2.0 6.0 0.00 0.28 0.12 88 1008.8
20260509172306 58 234 1.0 6.0 0.00 0.28 0.12 90 1008.9
20260509171304 57 293 1.0 8.0 0.00 0.28 0.12 92 1009.0
20260509170806 57 283 1.0 5.0 0.00 0.28 0.12 91 1009.0
20260509170305 56 282 0.0 1.0 0.00 0.28 0.12 91 1008.9
20260509165804 56 266 1.0 3.0 0.00 0.28 0.12 91 1009.0
20260509165306 56 234 2.0 5.0 0.00 0.28 0.12 92 1009.0
20260509164804 56 233 2.0 3.0 0.00 0.28 0.12 92 1008.9
20260509164304 56 240 1.0 3.0 0.00 0.28 0.12 92 1009.0
20260509163804 56 209 1.0 3.0 0.00 0.28 0.12 93 1009.0
20260509163304 56 247 2.0 8.0 0.00 0.28 0.12 94 1009.0
20260509162804 56 228 2.0 3.0 0.00 0.28 0.12 95 1009.0
20260509162307 55 222 1.0 3.0 0.00 0.28 0.12 95 1009.1
20260509161805 54 224 2.0 7.0 0.00 0.28 0.12 95 1009.1
20260509160804 54 250 3.0 8.0 0.01 0.28 0.12 96 1009.0
20260509160304 54 231 2.0 6.0 0.01 0.28 0.12 96 1008.9
20260509155804 54 325 1.0 3.0 0.01 0.28 0.12 97 1009.0
20260509153805 53 238 0.0 3.0 0.04 0.28 0.12 97 1008.9
20260509153304 53 208 1.0 5.0 0.04 0.28 0.12 97 1008.9
20260509152806 52 216 1.0 8.0 0.04 0.28 0.12 97 1008.9
20260509152306 52 207 1.0 3.0 0.04 0.28 0.12 97 1008.9
20260509151805 52 231 0.0 7.0 0.04 0.28 0.12 97 1008.9
20260509151305 52 238 2.0 3.0 0.04 0.28 0.12 97 1008.9
20260509150804 52 203 2.0 5.0 0.03 0.27 0.11 97 1008.9
20260509150305 52 205 1.0 3.0 0.03 0.27 0.11 97 1008.9
20260509145804 52 250 1.0 5.0 0.03 0.27 0.11 97 1008.9
20260509145306 52 201 1.0 3.0 0.03 0.27 0.11 97 1008.9
20260509144804 52 246 1.0 2.0 0.02 0.26 0.10 97 1009.0
20260509144305 52 222 1.0 3.0 0.03 0.26 0.10 97 1008.9
20260509143807 52 266 1.0 3.0 0.01 0.24 0.08 97 1008.9
20260509143304 52 266 1.0 3.0 0.01 0.24 0.08 97 1009.0
20260509142804 51 235 0.0 3.0 0.02 0.24 0.08 97 1008.9
20260509142307 51 230 2.0 6.0 0.02 0.24 0.08 97 1008.9
20260509141804 51 277 1.0 7.0 0.02 0.24 0.08 97 1009.0
20260509141304 51 227 3.0 5.0 0.02 0.24 0.08 97 1009.0
20260509140805 51 248 1.0 6.0 0.03 0.24 0.08 97 1008.9
20260509140304 51 249 3.0 6.0 0.03 0.24 0.08 97 1009.0
20260509135306 51 222 2.0 6.0 0.03 0.24 0.08 97 1009.0
20260509134804 51 220 3.0 8.0 0.03 0.24 0.08 97 1009.1
20260509133804 51 230 2.0 6.0 0.03 0.23 0.07 97 1009.1
20260509133305 51 238 1.0 5.0 0.03 0.23 0.07 97 1009.1
20260509132805 51 222 2.0 7.0 0.02 0.22 0.06 97 1009.1
20260509131804 51 192 3.0 7.0 0.02 0.22 0.06 97 1009.1
20260509131307 51 203 1.0 3.0 0.02 0.22 0.06 97 1009.1
20260509130804 51 194 1.0 7.0 0.01 0.21 0.05 97 1009.1
20260509125308 51 219 2.0 3.0 0.01 0.21 0.05 97 1009.0
20260509124804 51 215 2.0 3.0 0.02 0.21 0.05 97 1009.1
20260509124304 50 207 1.0 3.0 0.02 0.21 0.05 97 1009.2
20260509123804 50 240 2.0 7.0 0.01 0.20 0.04 98 1009.2
20260509123304 50 252 1.0 6.0 0.01 0.20 0.04 98 1009.2
20260509122805 50 213 0.0 3.0 0.01 0.20 0.04 98 1009.3
20260509122306 50 236 1.0 3.0 0.01 0.20 0.04 98 1009.2
20260509121305 50 258 0.0 1.0 0.01 0.20 0.04 98 1009.2
20260509120804 49 231 1.0 2.0 0.01 0.20 0.04 98 1009.4
20260509120304 49 221 1.0 3.0 0.01 0.20 0.04 98 1009.2
20260509115804 49 224 0.0 3.0 0.01 0.20 0.04 98 1009.3
20260509115307 49 198 0.0 0.0 0.01 0.20 0.04 98 1009.3
20260509114805 49 185 0.0 1.0 0.00 0.19 0.03 98 1009.4
20260509113804 49 146 0.0 0.0 0.00 0.19 0.03 98 1009.4
20260509113304 48 146 0.0 0.0 0.00 0.19 0.03 98 1009.4
20260509112805 48 146 0.0 0.0 0.00 0.19 0.03 97 1009.4
20260509112307 48 146 0.0 0.0 0.00 0.19 0.03 98 1009.4
20260509111804 48 146 0.0 0.0 0.00 0.19 0.03 97 1009.4
20260509111304 48 146 0.0 0.0 0.00 0.19 0.03 97 1009.3
20260509110805 48 146 0.0 0.0 0.00 0.19 0.03 97 1009.3
20260509110305 48 146 0.0 0.0 0.00 0.19 0.03 97 1009.3
20260509105306 48 146 0.0 1.0 0.00 0.19 0.03 97 1009.2
20260509104805 48 146 0.0 0.0 0.00 0.19 0.03 97 1009.2
20260509104305 48 146 0.0 0.0 0.00 0.19 0.03 97 1009.2
20260509103804 48 146 0.0 0.0 0.00 0.19 0.03 97 1009.1
20260509103304 48 146 0.0 1.0 0.00 0.19 0.03 97 1009.1
20260509102805 48 146 0.0 0.0 0.00 0.19 0.03 97 1009.2
20260509102306 48 146 0.0 0.0 0.00 0.19 0.03 97 1009.1
20260509101805 48 146 0.0 0.0 0.00 0.19 0.03 97 1009.1
20260509101305 48 146 0.0 0.0 0.00 0.19 0.03 97 1009.1
20260509100804 48 146 0.0 1.0 0.00 0.19 0.03 97 1009.1
20260509100304 48 146 0.0 0.0 0.00 0.19 0.03 97 1009.2
20260509095804 48 146 0.0 0.0 0.00 0.19 0.03 97 1009.4
20260509095306 48 146 0.0 0.0 0.00 0.19 0.03 97 1009.6
20260509094804 48 146 0.0 0.0 0.01 0.19 0.03 97 1009.5
20260509094304 48 146 0.0 0.0 0.01 0.19 0.03 97 1009.5
20260509092804 48 173 0.0 0.0 0.01 0.19 0.03 97 1009.4
20260509092306 47 191 0.0 0.0 0.01 0.19 0.03 97 1009.6
20260509091804 48 191 0.0 0.0 0.01 0.19 0.03 97 1009.7
20260509091305 48 191 0.0 0.0 0.01 0.19 0.03 97 1009.6
20260509090805 48 191 0.0 0.0 0.02 0.19 0.03 97 1009.7
20260509090304 48 191 0.0 0.0 0.02 0.19 0.03 97 1009.8
20260509085806 47 191 0.0 0.0 0.02 0.19 0.03 97 1009.9
20260509084805 48 191 0.0 0.0 0.01 0.18 0.02 97 1010.0
20260509084305 48 191 0.0 0.0 0.01 0.18 0.02 97 1010.0
20260509083805 48 191 0.0 0.0 0.01 0.18 0.02 97 1010.0
20260509083305 48 191 0.0 0.0 0.01 0.18 0.02 97 1010.0
20260509082805 48 191 0.0 0.0 0.01 0.18 0.02 97 1010.1
20260509081805 48 191 0.0 0.0 0.02 0.18 0.02 97 1010.1
20260509081305 48 191 0.0 0.0 0.02 0.18 0.02 97 1010.1
20260509080805 48 191 0.0 0.0 0.01 0.17 0.01 97 1010.1
20260509080304 48 191 0.0 0.0 0.01 0.17 0.01 96 1010.3
20260509075804 47 120 0.0 1.0 0.01 0.17 0.01 96 1010.0
20260509075309 47 120 0.0 1.0 0.01 0.17 0.01 96 1009.9
20260509074304 47 120 0.0 1.0 0.01 0.17 0.01 96 1010.0
20260509073805 47 120 0.0 0.0 0.01 0.17 0.01 96 1010.2
20260509073304 48 120 0.0 1.0 0.01 0.17 0.01 96 1010.2
20260509072804 48 120 0.0 1.0 0.01 0.17 0.01 96 1010.2
20260509072306 48 120 0.0 3.0 0.01 0.17 0.01 96 1010.1
20260509071804 47 156 0.0 1.0 0.00 0.16 0.00 96 1010.1
20260509071304 47 125 0.0 1.0 0.00 0.16 0.00 96 1010.1
20260509070804 47 120 0.0 3.0 0.00 0.16 0.00 96 1010.0
20260509070305 47 128 0.0 2.0 0.00 0.16 0.00 96 1009.9
20260509065306 48 113 1.0 2.0 0.00 0.16 0.00 96 1010.0
20260509064804 48 117 0.0 1.0 0.00 0.16 0.00 96 1010.0
20260509064304 48 116 0.0 2.0 0.00 0.16 0.00 96 1010.1
20260509063804 48 130 0.0 3.0 0.00 0.16 0.00 96 1010.1
20260509063304 48 99 0.0 2.0 0.00 0.16 0.00 96 1010.2
20260509062806 48 118 1.0 3.0 0.00 0.16 0.00 96 1010.3
20260509062306 48 116 0.0 2.0 0.00 0.16 0.00 96 1010.3
20260509061304 48 118 0.0 0.0 0.00 0.16 0.00 96 1010.4
20260509060304 48 126 0.0 2.0 0.00 0.16 0.00 96 1010.6
20260509055805 48 112 0.0 1.0 0.00 0.16 0.00 96 1010.6
20260509055306 48 111 0.0 1.0 0.00 0.16 0.00 96 1010.8
20260509054805 48 111 0.0 1.0 0.00 0.16 0.00 96 1010.9
20260509054304 48 113 0.0 1.0 0.00 0.16 0.00 96 1011.0
20260509053304 48 115 0.0 1.0 0.00 0.16 0.00 96 1011.1
20260509052804 48 115 0.0 1.0 0.00 0.16 0.00 96 1011.2
20260509052307 48 103 0.0 1.0 0.00 0.16 0.00 97 1011.2
20260509051805 48 110 0.0 1.0 0.00 0.16 0.00 97 1011.3
20260509051307 48 110 0.0 1.0 0.00 0.16 0.00 97 1011.3
20260509050804 48 86 0.0 1.0 0.00 0.16 0.00 97 1011.3
20260509050304 48 86 0.0 2.0 0.00 0.16 0.00 96 1011.3
20260509045306 48 108 0.0 2.0 0.00 0.16 0.00 96 1011.3
20260509044804 48 96 0.0 2.0 0.00 0.16 0.00 97 1011.4
20260509043804 48 112 0.0 1.0 0.01 0.16 0.00 96 1011.6
20260509042804 48 115 0.0 1.0 0.01 0.16 0.00 97 1011.7
20260509042307 48 115 0.0 1.0 0.01 0.16 0.00 97 1011.8
20260509041804 48 115 0.0 1.0 0.01 0.16 0.00 97 1011.9
20260509041304 48 115 0.0 0.0 0.02 0.16 0.00 96 1012.0
20260509040805 48 115 0.0 1.0 0.02 0.16 0.00 96 1012.0
20260509035804 48 96 0.0 1.0 0.02 0.16 0.16 96 1012.1
20260509034804 48 93 0.0 1.0 0.02 0.16 0.16 96 1012.2
20260509033804 49 117 1.0 1.0 0.02 0.15 0.15 96 1012.3